Date String (YYYY-MM-DD hh:mm:ss) UTC,Instrument flags,absolute air pressure of the measurement (hPa),sample flow rate (lpm),inlet stack bypass flow (lpm),air temperature of the measurement (°C),ambient temperature measured by the external sensor (°C),aerosol sample conditioner tube jacket temperature (°C),OPC LED temperature (°C),internal box temperature (°C),relative humidity of the measurement (%),span deviation,mass concentration of particles derived from Lorenz-Mie calculation of OPC scattering (μg/m³),mass concentration of particles derived from Lorenz-Mie calculation of OPC scattering (μg/m³),mass concentration of particles derived from Lorenz-Mie calculation of OPC scattering (μg/m³)
DateTimeUTC,F1_M11,P_M11,Q1_M11,Q2_M11,T1_M11,T2_M11,T3_M11,T4_M11,T5_M11,U1_M11,ZSPAN_M11,X0_M11,X2_M11,X1_M11
2024-02-25 06:00:00,SystemResetWarning,0824.9,5.01,000.00,022.0,021.2,000.0,030.3,023.7,06.0,0000.0,0012.99,0003.65,0001.38
2024-02-25 06:01:00,SystemResetWarning,0824.9,4.98,000.00,022.0,021.2,000.0,030.3,023.7,05.8,0000.0,0013.21,0003.62,0001.38
2024-02-25 06:02:00,SystemResetWarning,0824.9,5.00,000.00,022.0,021.2,000.0,030.3,023.8,05.7,0000.0,0012.48,0003.57,0001.38
2024-02-25 06:03:00,SystemResetWarning,0824.9,5.02,000.00,022.0,021.2,000.0,030.3,023.7,05.8,0000.0,0012.83,0003.56,0001.37
2024-02-25 06:04:00,SystemResetWarning,0824.9,5.00,000.00,022.0,021.2,000.0,030.3,023.7,05.8,0000.0,0013.02,0003.57,0001.39
2024-02-25 06:05:00,SystemResetWarning,0824.9,5.00,000.00,022.0,021.1,000.0,030.3,023.7,05.8,0000.0,0014.62,0003.62,0001.40
2024-02-25 06:06:00,SystemResetWarning,0824.8,5.00,000.00,022.0,021.1,000.0,030.3,023.7,05.7,0000.0,0015.11,0003.59,0001.40
2024-02-25 06:07:00,SystemResetWarning,0824.8,5.00,000.00,021.9,021.1,000.0,030.4,023.7,05.6,0000.0,0013.92,0003.61,0001.41
2024-02-25 06:08:00,SystemResetWarning,0824.8,4.99,000.00,021.9,021.1,000.0,030.3,023.7,05.6,0000.0,0013.28,0003.62,0001.43
2024-02-25 06:09:00,SystemResetWarning,0824.9,5.00,000.00,021.9,021.1,000.0,030.3,023.7,05.5,0000.0,0013.08,0003.57,0001.43
2024-02-25 06:10:00,SystemResetWarning,0824.9,4.99,000.00,021.9,021.1,000.0,030.3,023.7,05.6,0000.0,0012.88,0003.54,0001.43
2024-02-25 06:11:00,SystemResetWarning,0824.9,5.00,000.00,021.9,021.1,000.0,030.3,023.7,05.8,0000.0,0012.84,0003.53,0001.44
2024-02-25 06:12:00,SystemResetWarning,0824.8,5.00,000.00,021.9,021.1,000.0,030.3,023.6,05.7,0000.0,0012.22,0003.57,0001.45
2024-02-25 06:13:00,SystemResetWarning,0824.8,5.00,000.00,021.9,021.1,000.0,030.3,023.6,05.7,0000.0,0012.05,0003.61,0001.47
2024-02-25 06:14:00,SystemResetWarning,0824.9,5.00,000.00,021.9,021.1,000.0,030.3,023.6,05.6,0000.0,0012.04,0003.65,0001.49
2024-02-25 06:15:00,SystemResetWarning,0824.7,5.00,000.00,021.9,021.1,000.0,030.3,023.7,05.5,0000.0,0012.47,0003.66,0001.50
2024-02-25 06:16:00,SystemResetWarning,0824.9,5.00,000.00,021.9,021.0,000.0,030.3,023.6,05.5,0000.0,0011.22,0003.62,0001.49
2024-02-25 06:17:00,SystemResetWarning,0824.8,5.01,000.00,021.9,021.0,000.0,030.3,023.6,05.5,0000.0,0010.78,0003.65,0001.51
2024-02-25 06:18:00,SystemResetWarning,0824.7,5.01,000.00,021.9,021.0,000.0,030.3,023.6,05.5,0000.0,0010.83,0003.63,0001.50
2024-02-25 06:19:00,SystemResetWarning,0824.8,4.99,000.00,021.9,021.0,000.0,030.3,023.6,05.7,0000.0,0011.19,0003.63,0001.49
2024-02-25 06:20:00,SystemResetWarning,0824.8,4.99,000.00,021.9,021.0,000.0,030.3,023.6,05.7,0000.0,0011.77,0003.66,0001.48
2024-02-25 06:21:00,SystemResetWarning,0824.9,4.99,000.00,021.9,021.0,000.0,030.3,023.6,05.6,0000.0,0013.52,0003.71,0001.50
2024-02-25 06:22:00,SystemResetWarning,0824.9,5.00,000.00,021.9,020.9,000.0,030.3,023.6,05.6,0000.0,0014.36,0003.75,0001.50
2024-02-25 06:23:00,SystemResetWarning,0824.8,5.01,000.00,021.8,020.9,000.0,030.3,023.6,05.6,0000.0,0014.62,0003.71,0001.49
2024-02-25 06:24:00,SystemResetWarning,0824.8,5.01,000.00,021.8,020.9,000.0,030.3,023.5,05.6,0000.0,0014.70,0003.71,0001.48
2024-02-25 06:25:00,SystemResetWarning,0824.8,4.98,000.00,021.8,020.9,000.0,030.3,023.5,05.7,0000.0,0014.71,0003.67,0001.45
2024-02-25 06:26:00,SystemResetWarning,0824.8,5.00,000.00,021.8,020.9,000.0,030.3,023.5,05.6,0000.0,0014.08,0003.62,0001.44
2024-02-25 06:27:00,SystemResetWarning,0824.8,5.01,000.00,021.8,020.9,000.0,030.3,023.5,05.5,0000.0,0013.76,0003.57,0001.45
2024-02-25 06:28:00,SystemResetWarning,0824.8,5.01,000.00,021.8,020.9,000.0,030.3,023.5,05.6,0000.0,0013.30,0003.56,0001.44
2024-02-25 06:29:00,SystemResetWarning,0824.7,5.00,000.00,021.8,020.9,000.0,030.3,023.5,05.6,0000.0,0013.46,0003.54,0001.45
2024-02-25 06:30:00,SystemResetWarning,0824.8,5.00,000.00,021.8,020.9,000.0,030.2,023.5,05.7,0000.0,0014.69,0003.59,0001.45
2024-02-25 06:31:00,SystemResetWarning,0824.9,5.00,000.00,021.8,021.0,000.0,030.2,023.5,05.7,0000.0,0014.34,0003.58,0001.46
2024-02-25 06:32:00,SystemResetWarning,0824.8,5.00,000.00,021.8,021.0,000.0,030.2,023.5,05.7,0000.0,0013.45,0003.58,0001.46
2024-02-25 06:33:00,SystemResetWarning,0824.8,5.00,000.00,021.8,021.0,000.0,030.2,023.5,05.6,0000.0,0012.75,0003.54,0001.46
2024-02-25 06:34:00,SystemResetWarning,0824.9,4.99,000.00,021.8,021.0,000.0,030.2,023.5,05.7,0000.0,0012.44,0003.56,0001.45
2024-02-25 06:35:00,SystemResetWarning,0824.9,5.00,000.00,021.8,021.0,000.0,030.2,023.5,05.8,0000.0,0013.38,0003.54,0001.46
2024-02-25 06:36:00,SystemResetWarning,0824.8,5.00,000.00,021.8,020.9,000.0,030.2,023.5,05.6,0000.0,0014.30,0003.50,0001.46
2024-02-25 06:37:00,SystemResetWarning,0824.8,5.00,000.00,021.8,020.9,000.0,030.2,023.5,05.7,0000.0,0014.36,0003.50,0001.46
2024-02-25 06:38:00,SystemResetWarning,0824.7,5.00,000.00,021.8,020.9,000.0,030.2,023.5,05.8,0000.0,0014.64,0003.57,0001.47
2024-02-25 06:39:00,SystemResetWarning,0824.7,5.01,000.00,021.8,020.9,000.0,030.2,023.5,05.7,0000.0,0014.57,0003.53,0001.45
2024-02-25 06:40:00,SystemResetWarning,0824.7,5.01,000.00,021.8,020.9,000.0,030.2,023.5,05.7,0000.0,0014.39,0003.52,0001.46
2024-02-25 06:41:00,SystemResetWarning,0824.6,5.00,000.00,021.8,020.9,000.0,030.2,023.5,05.7,0000.0,0012.82,0003.49,0001.47
2024-02-25 06:42:00,SystemResetWarning,0824.7,4.99,000.00,021.7,020.9,000.0,030.2,023.5,05.6,0000.0,0012.89,0003.51,0001.47
2024-02-25 06:43:00,SystemResetWarning,0824.7,5.00,000.00,021.7,020.8,000.0,030.2,023.4,05.7,0000.0,0012.64,0003.53,0001.46
2024-02-25 06:44:00,SystemResetWarning,0824.5,4.99,000.00,021.7,020.8,000.0,030.2,023.4,05.6,0000.0,0013.42,0003.55,0001.46
2024-02-25 06:45:00,SystemResetWarning,0824.6,5.01,000.00,021.7,020.8,000.0,030.2,023.4,05.6,0000.0,0013.89,0003.51,0001.47
2024-02-25 06:46:00,SystemResetWarning,0824.6,5.01,000.00,021.7,020.8,000.0,030.2,023.4,05.8,0000.0,0013.54,0003.53,0001.47
2024-02-25 06:47:00,SystemResetWarning,0824.4,4.99,000.00,021.7,020.8,000.0,030.2,023.4,05.8,0000.0,0012.20,0003.53,0001.48
2024-02-25 06:48:00,SystemResetWarning,0824.6,5.00,000.00,021.7,020.8,000.0,030.1,023.4,05.5,0000.0,0011.71,0003.51,0001.48
2024-02-25 06:49:00,SystemResetWarning,0824.7,5.00,000.00,021.7,020.7,000.0,030.1,023.4,05.7,0000.0,0011.69,0003.53,0001.48
2024-02-25 06:50:00,SystemResetWarning,0824.7,5.01,000.00,021.7,020.7,000.0,030.1,023.4,05.8,0000.0,0012.10,0003.56,0001.50
2024-02-25 06:51:00,SystemResetWarning,0824.6,5.00,000.00,021.6,020.7,000.0,030.1,023.4,05.8,0000.0,0012.22,0003.61,0001.49
2024-02-25 06:52:00,SystemResetWarning,0824.6,5.01,000.00,021.6,020.7,000.0,030.1,023.4,05.8,0000.0,0012.27,0003.62,0001.50
2024-02-25 06:53:00,SystemResetWarning,0824.7,5.00,000.00,021.6,020.7,000.0,030.1,023.4,05.7,0000.0,0012.12,0003.70,0001.51
2024-02-25 06:54:00,SystemResetWarning,0824.6,5.00,000.00,021.6,020.7,000.0,030.1,023.3,05.6,0000.0,0012.05,0003.65,0001.51
2024-02-25 06:55:00,SystemResetWarning,0824.4,4.99,000.00,021.6,020.7,000.0,030.1,023.3,05.6,0000.0,0010.93,0003.60,0001.52
2024-02-25 06:56:00,SystemResetWarning,0824.5,5.00,000.00,021.6,020.7,000.0,030.1,023.3,05.6,0000.0,0010.41,0003.63,0001.54
2024-02-25 06:57:00,SystemResetWarning,0824.6,4.99,000.00,021.6,020.7,000.0,030.1,023.3,05.7,0000.0,0010.77,0003.67,0001.56
2024-02-25 06:58:00,SystemResetWarning,0824.7,5.01,000.00,021.6,020.7,000.0,030.1,023.3,05.8,0000.0,0011.32,0003.68,0001.57
2024-02-25 06:59:00,SystemResetWarning,0824.7,5.01,000.00,021.6,020.7,000.0,030.1,023.3,05.9,0000.0,0011.88,0003.72,0001.57
